STARLINK-1292, 45394

Orbit data source: Space-Track

STARLINK-1292, 45394 is a payload satellite owned by SpaceX/Seattle (US) in LEO that was launched on Wed, 18 Mar 2020 UTC via an FALCON 9 launch vehicle from the Air Force Eastern Test Range (AFETR). Payload-class satellites include a variety of spacecraft equipped with specific instruments for various scientific and technological missions. These include communications satellites like Starlink; space stations such as the ISS; scientific satellites like the Hubble; Earth observation satellites from companies like Planet Labs, Umbra, and HawkEye 360; GPS; miniature CubeSats for education and research; and military/defense satellites.

Loading next visibility...
Identifier
45394, 2020-019AL
Orbit
LEO
Country
Flag of USUS
Related business
Manufacturer
SpaceX/Seattle
Mission
Partially operational Commercial Communications
Bus & Motor
STARLINK, Unknown motor
Mass
260 kg wet, ~248 kg dry
Launch date (UTC)
2020-03-18 (5 years ago)
Launch vehicle
FALCON 9
Launch site
Air Force Eastern Test Range (AFETR)
Object type
Payload
Rocket body
Debris
Shape & HBR
Box + 1 Pan, 4.4 m
Radar Cross Section
13.562 m², Large (>1 m²)

Expand to show TLE details & history
Last TLE update: 21 hours ago

TLE from 21 hours ago
0 STARLINK-1292
1 45394U 20019AL  25242.25001157  .00122376  00000-0  12046-2 0  9999
2 45394  53.0531 268.0528 0002321  34.7964 286.0973 15.65119283  5995
Epoch: 2025-08-30T06:00Z
TLE epoch observation values (Epoch: 2025-08-30T06:00:00.999Z)
Latitude
-30.49928°
Longitude
173.22392°
Altitude
381.787 km
Speed
7.681 km/s
True Right ascension
16h 07m 39s
True Declination
-30° 20' 27"
Sunlit
Object was in daylight at epoch
Visualization orbit readout
Latitude
Unknown
Longitude
Unknown
Altitude
Unknown
Speed
Unknown
Apparent Right ascension
Unknown
Apparent Declination
Unknown
Sunlit
N/A
Visualization observer readout
Local Sidereal Time
18:35:39
Azimuth
Unknown
Elevation
Unknown
Doppler factor
Unknown
Orbital elements
Apogee altitude
374.74 km
Perigee altitude
371.606 km
Semi-major axis
6,751.31 km
Eccentricity
0.00023
Inclination
53.0531°
RAAN
268.0528°
Arg. of periapsis
34.7964°
True anomaly
286.07174°
Mean anomaly
286.0973°
Eccentric anomaly
286.08452°
Mean motion
3.91256 °/min
Orbital period
92.01 mins
BSTAR
0.0012046
Loading maneuver chart data...
Computing Atmospheric mass density...
Loading historical data...
Loading historical data...
Loading historical data...
Loading historical data...
Loading historical data...
Loading historical data...
Loading historical data...

Documentation

Showing up to 5 results
|